Regional Weather Roundup
Issued by NWS

Home | Current Version | Previous Version | Text Only | Print | Product List | Glossary Off
Versions: 1 2 3 4 5 6 7 8 9 10 11 12 13 14 15 16 17 18 19 20 21 22 23 24 25 26 27 28 29 30 31 32 33 34 35 36 37 38 39 40 41 42 43 44 45 46 47 48 49 50

000
ASUS43 KMPX 252210
RWRMN
WEATHER ROUNDUP FOR MINNESOTA
NATIONAL WEATHER SERVICE TWIN CITIES/CHANHASSEN MN
500 PM CDT MON SEP 25 2017


NOTE: "FAIR" INDICATES FEW OR NO CLOUDS BELOW 12,000 FEET WITH NO
SIGNIFICANT WEATHER AND/OR OBSTRUCTIONS TO VISIBILITY. N/A MEANS
CURRENT SKY AND/OR WEATHER CONDITIONS ARE NOT AVAILABLE.

MNZ060>063-068>070-252300-
   Twin Cities Metro

CITY           SKY/WX    TMP DP  RH WIND       PRES   REMARKS
TWIN CITIES    CLOUDY    62  57  83 N10       29.97R
ST PAUL        CLOUDY    60  57  89 N8        29.98R
CRYSTAL        CLOUDY    60  53  77 N8        29.97R
BLAINE         CLOUDY    61  57  88 N10       29.98R
LAKEVILLE      CLOUDY    61  57  88 N7        29.97R
EDEN PRAIRIE   CLOUDY    61  57  87 N9        29.97R
SOUTH ST PAUL  CLOUDY    61  58  88 NW8       29.98R
LAKE ELMO      CLOUDY    61  57  88 N6G18     29.99R
$$
MNZ001>005-007-008-013>017-022>024-027-028-252300-
   Northwest Minnesota

CITY           SKY/WX    TMP DP  RH WIND       PRES   REMARKS
BEMIDJI        CLOUDY    54  49  84 N6        30.06S
HALLOCK          N/A     54  48  82 N8        30.12F
ROSEAU         CLOUDY    55  48  76 NE10      30.11S
THIEF RVR FALL CLOUDY    54  46  74 NE8       30.11S
CROOKSTON      CLOUDY    54  48  82 N12       30.11S
FOSSTON        CLOUDY    52  48  87 N9        30.09S
DETROIT LAKES  CLOUDY    54  48  82 N6        30.06F
MOORHEAD       CLOUDY    52  46  82 N12       30.09F
PARK RAPIDS    CLOUDY    58  48  69 N8        30.05R
MAHNOMEN       CLOUDY    53  47  80 N12       30.06F
$$
MNZ006-009>011-018-025>026-252300-
   North Central Minnesota

CITY           SKY/WX    TMP DP  RH WIND       PRES   REMARKS
BAUDETTE       CLOUDY    54  48  80 N7        30.10R
FLAG ISLAND    CLOUDY    54  46  76 N14       30.10R
INTL FALLS     CLOUDY    54  49  83 N8        30.06F
WASKISH        CLOUDY    55  48  76 N8        30.09R
BIG FORK       CLOUDY    55  52  88 N5        30.05S
LONGVILLE      CLOUDY    55  50  82 N3        30.03R
GRAND RAPIDS   CLOUDY    56  51  84 NE6       30.05S
CRANE LAKE     CLOUDY    54  52  94 N3        30.06S
ORR            CLOUDY    55  48  76 N3        30.02S
WALKER         CLOUDY    55  48  77 N5        30.05R
$$
MNZ012-019>021-037-252300-
   Northeast Minnesota

CITY           SKY/WX    TMP DP  RH WIND       PRES   REMARKS
DULUTH         CLOUDY    56  55  97 N7        30.00R
ELY            CLOUDY    55  54  94 CALM      30.02F
HIBBING        CLOUDY    55  51  86 N8        30.02S
EVELETH        CLOUDY    58  56  95 N6        30.03S
GRAND MARAIS     N/A     65  57  75 VRB6      29.97S
$$
MNZ029>031-032-039>041-046>048-054>057-064-252300-
   West Central Minnesota

CITY           SKY/WX    TMP DP  RH WIND       PRES   REMARKS
FERGUS FALLS   CLOUDY    55  48  76 N7        30.04F
WHEATON        CLOUDY    52  48  87 NW14      30.07S
ALEXANDRIA     CLOUDY    57  50  77 N9        30.03S
ELBOW LAKE     CLOUDY    54  50  85 NW8       30.04F
WADENA         CLOUDY    55  48  76 N8        30.03F
GLENWOOD       CLOUDY    57  52  82 N8        30.02S
APPLETON       CLOUDY    59  50  72 N8        30.01F
BENSON         CLOUDY    59  50  72 NE8       30.02F
ORTONVILLE     CLOUDY    54  48  82 N13       30.04S
MADISON        CLOUDY    57  52  82 N9        30.02R
WILLMAR        CLOUDY    59  54  82 N7        30.01S
$$
MNZ033>034-036-042>043-049>051-058-059-252300-
   Central Minnesota

CITY           SKY/WX    TMP DP  RH WIND       PRES   REMARKS
ST CLOUD       CLOUDY    57  54  89 N8        30.00R
SAUK CENTRE    CLOUDY    57  50  78 N7        30.01F
PAYNESVILLE    CLOUDY    58  53  84 NW8       30.01R
AITKIN         CLOUDY    55  52  88 N6        30.00F
PINE RIVER     CLOUDY    54  46  76 N10       30.06S
BRAINERD       CLOUDY    56  51  84 N7        30.02F
STAPLES        CLOUDY    55  48  76 N9        30.02S
LITTLE FALLS   CLOUDY    55  46  71 N5        30.02R
LITCHFIELD     CLOUDY    61  55  82 N8        30.00R
BUFFALO        CLOUDY    59  55  85 N7        30.00R
MAPLE LAKE     CLOUDY    59  56  89 N6        30.01R
HUTCHINSON     CLOUDY    60  56  85 N6        30.00R
$$
MNZ037-044-045-052-053-252300-
   East Central Minnesota

CITY           SKY/WX    TMP DP  RH WIND       PRES   REMARKS
PRINCETON      CLOUDY    59  55  88 N7        30.00R
MORA           CLOUDY    55  52  88 CALM      30.01S
RUSH CITY      CLOUDY    58  54  84 N8        29.99S
MOOSE LAKE     CLOUDY    55  52  88 N5        29.99S
HINCKLEY       CLOUDY    59  54  82 N7        29.99S
CLOQUET        CLOUDY    55  52  88 N6        30.00S
MCGREGOR       CLOUDY    55  52  88 N8        30.01F
$$
MNZ071>073-080-081-089-090-097-098-252300-
   Southwest Minnesota

CITY           SKY/WX    TMP DP  RH WIND       PRES   REMARKS
MONTEVIDEO     CLOUDY    57  52  82 NE6       30.01S
GRANITE FALLS  CLOUDY    59  54  81 NW8       30.02R
CANBY          CLOUDY    56  50  82 W8        30.04R
MARSHALL       LGT RAIN  57  52  83 N8        30.00S
REDWOOD FALLS  CLOUDY    60  53  77 N7        29.99R
OLIVIA         DRIZZLE   59  54  82 N7        29.99R
PIPESTONE      CLOUDY    55  52  88 N3        30.01R
WORTHINGTON    CLOUDY    55  53  93 N8        29.99R
JACKSON        CLOUDY    55  54  94 N10       29.96R
TRACY          DRIZZLE   56  55  94 N9        29.99S
SLAYTON        DRIZZLE   55  46  72 N9        29.99S
$$
MNZ065>067-074>077-082>085-091>093-252300-
   South Central Minnesota

CITY           SKY/WX    TMP DP  RH WIND       PRES   REMARKS
MANKATO        CLOUDY    59  56  89 N8        29.98R
NEW ULM        CLOUDY    57  55  94 NE7       29.98R
ST JAMES       DRIZZLE   57  55  94 N8        29.97F
FAIRMONT       CLOUDY    58  55  90 MISG      29.95F
FARIBAULT      CLOUDY    63  59  88 NW8       29.97R
OWATONNA       CLOUDY    63  61  94 N13       29.95S
WASECA         CLOUDY    59  55  88 N9        29.97F
ALBERT LEA     CLOUDY    66  63  88 N8        29.95S
$$
MNZ078>079-086>088-094>096-252300-
   Southeast Minnesota

CITY           SKY/WX    TMP DP  RH WIND       PRES   REMARKS
ROCHESTER      PTSUNNY   73  65  75 N12       29.93R
RED WING       CLOUDY    68  59  73 N7        29.94R
STANTON        CLOUDY    63  59  85 N9        29.95R
DODGE CENTER   CLOUDY    64  61  88 NW10      29.95R
WINONA         MOSUNNY   77  64  65 SE8       29.89S
AUSTIN         CLOUDY    70  63  78 N9G16     29.93S
PRESTON        MOSUNNY   78  64  61 SE3       29.92R
$$
ABBREVIATIONS USED IN REMARKS
   TC - TEMPERATURES IN CELSIUS
  WCI - WIND CHILL INDEX
   HX - HEAT INDEX
  VSB - VISIBILITY
$$




USA.gov is the U.S. government's official web portal to all federal, state and local government web resources and services.